Hourly Weather Callao

Today, 15 July, Wednesday

Time Temperature Precipitation Wind Pressure Humidity
00:00 +9°C° 0 mm 1 mps 540 mmHg 69%
01:00 +9°C° 0 mm 1 mps 540 mmHg 68%
02:00 +9°C° 0 mm 1 mps 539 mmHg 66%
03:00 +7°C° 0 mm 2 mps 539 mmHg 65%
04:00 +7°C° 0 mm 2 mps 539 mmHg 64%
05:00 +7°C° 0 mm 2 mps 539 mmHg 61%
06:00 +8°C° 0 mm 2 mps 540 mmHg 58%
07:00 +8°C° 0 mm 2 mps 540 mmHg 55%
08:00 +12°C° 0 mm 2 mps 541 mmHg 48%
09:00 +14°C° 0 mm 2 mps 543 mmHg 42%
10:00 +16°C° 0 mm 2 mps 544 mmHg 35%
11:00 +16°C° 0 mm 2 mps 543 mmHg 36%
12:00 +17°C° 0 mm 3 mps 543 mmHg 36%
13:00 +17°C° 0 mm 3 mps 543 mmHg 37%
14:00 +17°C° 0 mm 3 mps 542 mmHg 39%
15:00 +16°C° 0 mm 3 mps 542 mmHg 42%
16:00 +16°C° 0 mm 3 mps 541 mmHg 44%
17:00 +14°C° 0 mm 2 mps 541 mmHg 50%
18:00 +13°C° 0 mm 1 mps 540 mmHg 57%
19:00 +11°C° 0 mm 0 mps 540 mmHg 63%
20:00 +10°C° 0 mm 0 mps 540 mmHg 64%
21:00 +10°C° 0 mm 0 mps 540 mmHg 64%
22:00 +10°C° 0 mm 1 mps 540 mmHg 65%
23:00 +10°C° 0 mm 1 mps 540 mmHg 64%

Tomorrow, 16 July, Thursday

Time Temperature Precipitation Wind Pressure Humidity
00:00 +10°C° 0 mm 1 mps 540 mmHg 63%
01:00 +10°C° 0 mm 1 mps 539 mmHg 62%
02:00 +9°C° 0 mm 1 mps 539 mmHg 62%
03:00 +8°C° 0 mm 2 mps 539 mmHg 61%
04:00 +8°C° 0 mm 2 mps 539 mmHg 60%
05:00 +8°C° 0 mm 2 mps 539 mmHg 58%
06:00 +9°C° 0 mm 2 mps 540 mmHg 55%
07:00 +9°C° 0 mm 2 mps 540 mmHg 53%
08:00 +12°C° 0 mm 2 mps 541 mmHg 47%
09:00 +14°C° 0 mm 2 mps 543 mmHg 41%
10:00 +17°C° 0 mm 2 mps 544 mmHg 35%
11:00 +17°C° 0 mm 3 mps 544 mmHg 36%
12:00 +17°C° 0 mm 3 mps 543 mmHg 36%
13:00 +17°C° 0 mm 3 mps 543 mmHg 37%
14:00 +17°C° 0 mm 3 mps 542 mmHg 41%
15:00 +16°C° 0 mm 3 mps 542 mmHg 44%
16:00 +14°C° 0 mm 3 mps 541 mmHg 48%
17:00 +14°C° 0 mm 2 mps 541 mmHg 53%
18:00 +13°C° 0 mm 1 mps 540 mmHg 59%
19:00 +10°C° 0 mm 0 mps 540 mmHg 64%
20:00 +11°C° 0 mm 1 mps 540 mmHg 64%
21:00 +10°C° 0 mm 1 mps 540 mmHg 64%
22:00 +10°C° 0 mm 1 mps 540 mmHg 64%
23:00 +10°C° 0 mm 1 mps 540 mmHg 64%

Day after tomorrow, 17 July, Friday

Time Temperature Precipitation Wind Pressure Humidity
00:00 +9°C° 0 mm 1 mps 539 mmHg 63%
01:00 +9°C° 0 mm 1 mps 539 mmHg 62%
02:00 +9°C° 0 mm 1 mps 539 mmHg 63%
03:00 +8°C° 0 mm 1 mps 538 mmHg 63%
04:00 +8°C° 0 mm 1 mps 538 mmHg 63%
05:00 +8°C° 0 mm 1 mps 539 mmHg 61%
06:00 +9°C° 0 mm 1 mps 539 mmHg 58%
07:00 +9°C° 0 mm 1 mps 540 mmHg 56%
08:00 +10°C° 0 mm 2 mps 541 mmHg 49%
09:00 +13°C° 0 mm 2 mps 542 mmHg 43%
10:00 +16°C° 0 mm 2 mps 544 mmHg 37%
11:00 +16°C° 0 mm 3 mps 543 mmHg 36%
12:00 +17°C° 0 mm 3 mps 543 mmHg 35%
13:00 +17°C° 0 mm 3 mps 543 mmHg 34%
14:00 +16°C° 0 mm 3 mps 542 mmHg 38%
15:00 +16°C° 0 mm 3 mps 542 mmHg 41%
16:00 +14°C° 0 mm 3 mps 541 mmHg 45%
17:00 +13°C° 0 mm 2 mps 541 mmHg 50%
18:00 +12°C° 0 mm 1 mps 540 mmHg 56%
19:00 +11°C° 0 mm 1 mps 540 mmHg 61%
20:00 +10°C° 0 mm 1 mps 540 mmHg 61%
21:00 +10°C° 0 mm 1 mps 540 mmHg 61%
22:00 +9°C° 0 mm 1 mps 540 mmHg 61%
23:00 +9°C° 0 mm 1 mps 539 mmHg 60%

18 July, Saturday

Time Temperature Precipitation Wind Pressure Humidity
00:00 +9°C° 0 mm 1 mps 539 mmHg 60%
01:00 +8°C° 0 mm 1 mps 539 mmHg 59%
02:00 +8°C° 0 mm 1 mps 538 mmHg 59%
03:00 +8°C° 0 mm 1 mps 538 mmHg 59%
04:00 +7°C° 0 mm 1 mps 538 mmHg 59%
05:00 +7°C° 0 mm 2 mps 538 mmHg 56%
06:00 +7°C° 0 mm 2 mps 539 mmHg 54%
07:00 +8°C° 0 mm 2 mps 539 mmHg 51%
08:00 +10°C° 0 mm 2 mps 540 mmHg 44%
09:00 +13°C° 0 mm 2 mps 542 mmHg 38%
10:00 +16°C° 0 mm 2 mps 543 mmHg 32%
11:00 +16°C° 0 mm 2 mps 543 mmHg 32%
12:00 +16°C° 0 mm 3 mps 543 mmHg 33%
13:00 +17°C° 0 mm 4 mps 543 mmHg 34%
14:00 +16°C° 0 mm 3 mps 542 mmHg 38%
15:00 +14°C° 0 mm 3 mps 541 mmHg 42%
16:00 +13°C° 0 mm 3 mps 541 mmHg 45%
17:00 +13°C° 0 mm 2 mps 540 mmHg 51%
18:00 +11°C° 0 mm 1 mps 540 mmHg 56%
19:00 +9°C° 0 mm 0 mps 539 mmHg 61%
20:00 +9°C° 0 mm 0 mps 539 mmHg 62%
21:00 +8°C° 0 mm 0 mps 539 mmHg 62%
22:00 +9°C° 0 mm 1 mps 539 mmHg 62%
23:00 +8°C° 0 mm 1 mps 539 mmHg 60%

19 July, Sunday

Time Temperature Precipitation Wind Pressure Humidity
00:00 +8°C° 0 mm 1 mps 539 mmHg 59%
01:00 +8°C° 0 mm 1 mps 539 mmHg 57%
02:00 +8°C° 0 mm 1 mps 538 mmHg 55%
03:00 +7°C° 0 mm 1 mps 538 mmHg 54%
04:00 +7°C° 0 mm 1 mps 537 mmHg 52%
05:00 +7°C° 0 mm 1 mps 538 mmHg 48%
06:00 +8°C° 0 mm 1 mps 539 mmHg 44%
07:00 +7°C° 0 mm 2 mps 539 mmHg 40%
08:00 +10°C° 0 mm 2 mps 540 mmHg 36%
09:00 +13°C° 0 mm 2 mps 542 mmHg 33%
10:00 +16°C° 0 mm 2 mps 543 mmHg 29%
11:00 +16°C° 0 mm 3 mps 543 mmHg 31%
12:00 +16°C° 0 mm 3 mps 543 mmHg 33%
13:00 +15°C° 0 mm 4 mps 543 mmHg 34%
14:00 +16°C° 0 mm 3 mps 542 mmHg 38%
15:00 +14°C° 0 mm 3 mps 541 mmHg 41%
16:00 +13°C° 0 mm 3 mps 541 mmHg 44%
17:00 +13°C° 0 mm 2 mps 540 mmHg 49%
18:00 +11°C° 0 mm 1 mps 540 mmHg 53%
19:00 +10°C° 0 mm 1 mps 539 mmHg 58%
20:00 +9°C° 0 mm 1 mps 539 mmHg 56%
21:00 +9°C° 0 mm 1 mps 539 mmHg 55%
22:00 +8°C° 0 mm 1 mps 539 mmHg 54%
23:00 +8°C° 0 mm 1 mps 539 mmHg 52%

20 July, Monday

Time Temperature Precipitation Wind Pressure Humidity
00:00 +8°C° 0 mm 1 mps 538 mmHg 50%
01:00 +7°C° 0 mm 1 mps 538 mmHg 48%
02:00 +7°C° 0 mm 1 mps 538 mmHg 47%
03:00 +6°C° 0 mm 1 mps 537 mmHg 46%
04:00 +6°C° 0 mm 1 mps 537 mmHg 45%
05:00 +7°C° 0 mm 1 mps 537 mmHg 42%
06:00 +7°C° 0 mm 1 mps 538 mmHg 39%
07:00 +8°C° 0 mm 1 mps 538 mmHg 36%
08:00 +9°C° 0 mm 2 mps 540 mmHg 33%
09:00 +13°C° 0 mm 2 mps 542 mmHg 31%
10:00 +15°C° 0 mm 2 mps 543 mmHg 28%
11:00 +16°C° 0 mm 3 mps 543 mmHg 30%
12:00 +16°C° 0 mm 3 mps 543 mmHg 31%
13:00 +15°C° 0 mm 4 mps 543 mmHg 32%
14:00 +16°C° 0 mm 3 mps 542 mmHg 36%
15:00 +14°C° 0 mm 3 mps 541 mmHg 39%
16:00 +13°C° 0 mm 3 mps 541 mmHg 43%
17:00 +13°C° 0 mm 2 mps 540 mmHg 50%
18:00 +11°C° 0 mm 1 mps 539 mmHg 58%
19:00 +8°C° 0 mm 0 mps 539 mmHg 65%
20:00 +8°C° 0 mm 0 mps 539 mmHg 65%
21:00 +8°C° 0 mm 0 mps 539 mmHg 65%
22:00 +8°C° 0 mm 0 mps 539 mmHg 64%
23:00 +7°C° 0 mm 0 mps 539 mmHg 64%
Show more